Location: Austin
(30.3000°N, 97.7500°W)
Time: 12:31:35
(UTC-05:00)

Aureole 1 Rocket - Pass Details

Date: 08 April 2026
Orbit: 374 x 1153 km, 73.9° (Epoch: 11 April)

Event Time Altitude Azimuth Distance (km) Brightness Sun altitude
Rises 20:22:19 0° 179° (S) 2,905 6.4 -6.8°
Reaches altitude 10° 20:24:54 10° 171° (S) 1,867 5.3 -7.3°
Maximum altitude 20:28:36 34° 105° (ESE) 825 3.2 -8.1°
Drops below altitude 10° 20:31:44 10° 38° (NE) 1,567 4.9 -8.7°
Sets 20:33:44 0° 29° (NNE) 2,366 5.9 -9.2°
